{"data":{"norad_id":67952,"intl_designator":"2026-037W","name":"STARLINK-36381","alt_names":[],"object_type":"PAYLOAD","status":"ACTIVE","operator":null,"country":"US","launch_date":"2026-02-24","launch_site_code":"AFETR","launch_vehicle":null,"mission":null,"orbit_class":"UNKNOWN","rcs_meters":null,"size_class":null,"mass_kg":null,"dimensions":null,"purposes":["comms"],"wikipedia_slug":null,"has_3d_model":false,"image_url":null,"decayed_at":null,"tle_current":{"epoch":"2026-09-19T11:12:21.650400Z","epoch_age_seconds":152470,"freshness":"FRESH","line1":"1 67952U 26037W   26262.46691725  .00015767  00000+0  58108-3 0  9995","line2":"2 67952  43.0029 176.6074 0001069 276.1171  83.9559 15.27590190 32970","mean_motion":15.2759019,"eccentricity":0.0001069,"inclination_deg":43.0029,"raan_deg":176.6074,"arg_perigee_deg":276.1171,"mean_anomaly_deg":83.9559,"bstar":0.00058108,"rev_number":3297,"period_min":94.266119894368,"perigee_km":482.28512615154,"apogee_km":483.75204121533,"semimajor_km":6861.1555836834,"source":"CELESTRAK","updated_at":"2026-09-20T09:00:43.711019Z"}}}